www.pogodaiklimat.ru

Погода и климат >> Архив погоды >> Австралия >> Западная Австралия >> Марди


ПОГОДА в Марди

  • Прогноз погоды в Марди
  • Монитор погоды в Марди

АРХИВ ПОГОДЫ в Марди

Время (UTC), дата Ветер
(напр.,м/с)
 
Видим.   Явления Облачность Т
(С)
Тd
(С)
f
(%)
Тe
(С)
Тes
(С)
Комфортность P
(гПа)
Po
(гПа)
Тmin
(С)
Tmax
(С)
R
(мм)
R24
(мм)
S
(см)
19 8.02 0 н/о н/о
00 9.02 0 н/о н/о
03 9.02 0 н/о н/о +40.0 +11.2 18 1008.0 1006.7
04 9.02 0 н/о н/о +38.5 +18.9 32 1007.5 1006.2
07 9.02 0 н/о н/о
09 9.02 0 н/о н/о +32.3 +23.5 60 1006.6 1005.3
10 9.02 0 н/о 1006.8 1005.5
16 9.02 0 н/о н/о
18 9.02 0 н/о н/о
10 10.02 0 н/о н/о +31.7 +24.0 64 1008.0 1006.7
19 10.02 0 н/о н/о
22 10.02 0 н/о н/о
01 11.02 0 н/о н/о
06 11.02 СЗ 7 н/о н/о +37.6 +19.5 35 +43 +43 опасность
перегрева
1007.2 1005.9
07 11.02 З 8 н/о н/о +37.6 +20.8 38 +44 +44 опасность
перегрева
1006.7 1005.4
09 11.02 З 6 н/о н/о +35.8 +22.4 46 +45 +45 опасность
перегрева
1006.4 1005.1
10 11.02 З 5 н/о н/о +34.8 +21.1 45 +42 +42 опасность
перегрева
1006.7 1005.4
12 11.02 З 5 н/о н/о +30.4 +26.1 78 +46 +46 опасность
перегрева
1008.8 1007.5
13 11.02 СЗ 2 н/о н/о +29.8 +25.1 76 +43 +43 опасность
перегрева
1009.2 1007.9
15 11.02 С 3 н/о н/о +28.7 +24.9 80 +41 +41 опасность
перегрева
1009.5 1008.2
16 11.02 СЗ 4 н/о н/о +28.8 +26.8 89 +45 +45 опасность
перегрева
1009.3 1008.0
18 11.02 СЗ 3 н/о н/о +28.1 +27.9 99 +46 +46 опасность
перегрева
1008.8 1007.5
19 11.02 СЗ 3 н/о н/о +28.3 +27.6 96 +46 +46 опасность
перегрева
1008.8 1007.5
21 11.02 З 2 н/о н/о +28.0 +26.0 89 +42 +42 опасность
перегрева
1008.8 1007.5
22 11.02 З 2 н/о н/о +27.5 +26.3 93 +42 +42 опасность
перегрева
1008.9 1007.6
00 12.02 З 4 н/о н/о +30.1 +25.4 76 +44 +44 опасность
перегрева
1009.9 1008.6
01 12.02 З 2 н/о н/о +30.8 +24.7 70 +44 +44 опасность
перегрева
1010.2 1008.9
03 12.02 СЗ 3 н/о н/о +34.6 +23.6 53 +46 +46 опасность
перегрева
1009.6 1008.3
04 12.02 СЗ 4 н/о н/о +34.7 +22.1 48 +43 +43 опасность
перегрева
1009.3 1008.0
06 12.02 СЗ 6 н/о н/о +36.0 +21.8 44 +44 +44 опасность
перегрева
1007.8 1006.5
07 12.02 СЗ 7 н/о н/о +34.5 +23.2 52 +45 +45 опасность
перегрева
1007.3 1006.0
09 12.02 СЗ 5 н/о н/о +33.6 +23.3 55 +44 +44 опасность
перегрева
1007.5 1006.2
10 12.02 З 3 н/о н/о +33.5 +22.6 53 +43 +43 опасность
перегрева
1008.6 1007.3
12 12.02 СЗ 5 н/о н/о +29.5 +24.6 75 +42 +42 опасность
перегрева
1009.2 1007.9
13 12.02 СЗ 5 н/о н/о +28.9 +24.9 79 +41 +41 опасность
перегрева
1009.6 1008.3 +36.4
15 12.02 СЗ 3 н/о н/о +27.8 +26.7 94 +43 +43 опасность
перегрева
1010.5 1009.2
16 12.02 С 2 н/о н/о +27.4 +27.4 100 +44 +44 опасность
перегрева
1010.2 1008.9
18 12.02 СЗ 4 н/о н/о +27.4 +26.0 92 +41 +41 опасность
перегрева
1008.9 1007.6
19 12.02 СЗ 4 н/о н/о +27.7 +25.5 88 +41 +41 опасность
перегрева
1008.9 1007.6
21 12.02 З 4 н/о н/о +27.7 +26.6 94 +43 +43 опасность
перегрева
1009.4 1008.1
22 12.02 З 3 н/о н/о +27.5 +27.5 100 +44 +44 опасность
перегрева
1009.8 1008.5
00 13.02 З 3 н/о н/о +29.1 +26.1 84 +44 +44 опасность
перегрева
1010.9 1009.6
01 13.02 З 4 н/о н/о +30.2 +24.8 73 +43 +43 опасность
перегрева
1011.3 1010.0 +27.3
03 13.02 СЗ 5 н/о н/о +32.6 +23.8 60 +44 +44 опасность
перегрева
1011.2 1009.9
04 13.02 СЗ 5 н/о н/о +32.9 +23.8 59 +44 +44 опасность
перегрева
1010.9 1009.6
06 13.02 СЗ 5 н/о н/о +33.3 +21.5 50 +41 +41 опасность
перегрева
1009.7 1008.4
07 13.02 СЗ 7 н/о н/о +33.1 +22.5 54 +43 +43 опасность
перегрева
1009.1 1007.8
09 13.02 СЗ 6 н/о н/о +32.2 +22.9 58 +42 +42 опасность
перегрева
1008.5 1007.2
10 13.02 З 7 н/о н/о +30.7 +23.1 64 +41 +41 опасность
перегрева
1008.8 1007.5
12 13.02 СЗ 5 н/о н/о +28.5 +25.9 86 +43 +43 опасность
перегрева
1010.1 1008.8
13 13.02 З 3 н/о н/о +28.4 +24.8 81 +41 +41 опасность
перегрева
1010.6 1009.3 +35.1
15 13.02 З 3 н/о н/о +28.1 +25.3 85 +41 +41 опасность
перегрева
1010.3 1009.0
16 13.02 З 3 н/о н/о +27.9 +25.3 86 +41 +41 опасность
перегрева
1010.3 1009.0
18 13.02 СЗ 3 н/о н/о +27.4 +27.4 100 +44 +44 опасность
перегрева
1009.7 1008.4
19 13.02 З 4 н/о н/о +27.3 +26.8 97 +42 +42 опасность
перегрева
1009.3 1008.0
21 13.02 З 3 н/о н/о +26.8 +26.8 100 +42 +42 опасность
перегрева
1009.6 1008.3
22 13.02 З 1 н/о н/о +26.1 +26.1 100 +39 +39 очень
душно
1010.4 1009.1
00 14.02 СЗ 4 н/о н/о +28.7 +25.5 83 +42 +42 опасность
перегрева
1011.8 1010.5
01 14.02 З 4 н/о н/о +29.5 +24.6 75 +42 +42 опасность
перегрева
1012.0 1010.7 +26.0
03 14.02 З 5 н/о н/о +31.9 +23.7 62 +43 +43 опасность
перегрева
1011.6 1010.3
04 14.02 З 5 н/о н/о +32.7 +23.3 58 +43 +43 опасность
перегрева
1011.2 1009.9
06 15.02 З 8 н/о н/о +39.5 +17.6 28 +42 +42 опасность
перегрева
1009.5 1008.2
07 15.02 З 9 н/о н/о +38.6 +16.3 27 +41 +41 опасность
перегрева
1009.0 1007.7
09 15.02 З 9 н/о н/о +36.6 +18.6 35 +41 +41 опасность
перегрева
1009.0 1007.7
10 15.02 З 7 н/о н/о +34.6 +19.4 41 +40 +40 очень
душно
1009.0 1007.7
12 15.02 З 6 н/о н/о +32.3 +20.9 51 +40 +40 очень
душно
1010.5 1009.2
13 15.02 З 6 н/о н/о +31.8 +21.9 56 +40 +40 очень
душно
1010.9 1009.6
15 15.02 З 4 н/о н/о +31.2 +21.4 56 +39 +39 очень
душно
1010.8 1009.5
18 15.02 ЮЗ 3 н/о н/о +28.6 +15.2 44 +31 +31 жарко 1009.7 1008.4

 

Местоположение метеостанции Марди (Западная Австралия, Австралия): широта -21.18 долгота 115.97 высота над уровнем моря 12 м.

В архиве по умолчанию представлена погода в Марди за последнюю неделю. Архивные данные за месяц целиком и за предыдущие месяцы, начиная с января 2011 года, Вы можете получить, выбрав интересующий диапазон дат из раскрывающегося списка и нажав кнопку "Ввод!".


*Определитесь, кто Вы:
робот инопланетянин человек

Внимание! Время в таблицах - всемирное. Для получения местного времени необходимо прибавить поправку, которая равна 8 ч.

Смотрите также архив погоды в соседних городах и на ближайших метеорологических станциях:

Погода в Барроу-Айленд (Западная Австралия, Австралия) (68 км)
Погода на Острове Варанас (Западная Австралия, Австралия) (72 км)
Погода в Каррате (Западная Австралия, Австралия) (98 км)
Погода на Острове Тевенард (Западная Австралия, Австралия) (103 км)
Погода в Онслоу (Западная Австралия, Австралия) (104 км)
Погода в Роборне (Западная Австралия, Австралия) (132 км)
Погода в Лермонте (Западная Австралия, Австралия) (228 км)
Погода в Параберду (Западная Австралия, Австралия) (287 км)
Погода в Порт-Хедленде (Западная Австралия, Австралия) (291 км)
Погода в Марбл-баре (Западная Австралия, Австралия) (392 км)

Пояснения к столбцам:

Ветер - указаны скорость ветра в м/с - средняя за 10 мин, порывы в срок и между сроками (в фигурных скобках) и направление, откуда дует ветер: С - северный, СВ - северо-восточный, В - восточный, ЮВ - юго-восточный, Ю - южный, ЮЗ - юго-западный, З - западный, СЗ - северо-западный.
Видимость - горизонтальная дальность видимости в метрах или километрах. При видимости от 1 до 10 км при отсутствии осадков обычно наблюдается дымка, при ухудшении видимости до 1 км и менее - туман. В сухую погоду видимость может ухудшаться дымом, пылью или мглою.
Явления - указаны атмосферные явления, наблюдавшиеся в срок или в последний час перед сроком; фигурными скобками обозначены явления, наблюдавшиеся между сроками (за 1-3 часа до срока); квадратными скобками обозначены град или гололедные отложения с указанием их диаметра в мм.
Облачность - указаны через наклонную черту общая и нижняя облачность в баллах и высота нижней границы облаков в метрах; квадратными скобками обозначены формы облаков: Ci - перистые, Cs - перисто-слоистые, Cc - перисто-кучевые, Ac - высококучевые, As - высокослоистые, Sc - слоисто-кучевые, Ns - слоисто-дождевые, Cu - кучевые, Cb - кучево-дождевые. Подробнее классификацию облаков см. в Атласе облаков (PDF).
T - Температура воздуха - температура, измеренная на высоте 2 м над землей.
Td - Температура точки росы - температура, при понижении до которой содержащийся в воздухе водяной пар достигнет насыщения.
f - Относительная влажность воздуха - влажноcть воздуха, измеренная на высоте 2 м над землей.
Te - Эффективная температура - температура, которую ощущает одетый по сезону человек в тени. Характеристика душности погоды. При расчете учитывается влияние влажности воздуха и скорости ветра на теплоощущения человека.
Tes - Эффективная температура на солнце - температура, которую ощущает человек, с поправкой на солнечный нагрев. Характеристика знойности погоды. Зависит от высоты солнца над горизонтом, облачности и скорости ветра. Ночью, в пасмурную погоду, а также при ветре 12 м/с и более поправка равна нулю.
P - Атмосферное давление - приведенное к уровню моря атмосферное давление.
Po - Атмосферное давление - измеренное на уровне метеостанции атмосферное давление.
Tmin - Минимальная температура - минимум температуры воздуха на высоте 2 м над землей.
Tmax - Максимальная температура - максимум температуры воздуха на высоте 2 м над землей.
R - Количество осадков - Количество выпавших осадков за период времени, мм. При наведении курсора мыши на число - период времени, за который выпало указанное количество осадков.
R24 - Количество осадков - Количество выпавших осадков за 24 часа, мм.
S - Снежный покров - Высота снежного покрова, см. При наведении курсора мыши на число - состояние снежного покрова и степень покрытия местности в баллах.